Regional Weather Roundup
Issued by NWS

Home | Current Version | Previous Version | Text Only | Print | Product List | Glossary On
Versions: 1 2 3 4 5 6 7 8 9 10 11 12 13 14 15 16 17 18 19 20 21 22 23 24 25 26 27 28
000
ASUS44 KBMX 050110
RWRAL

ALABAMA REGIONAL WEATHER ROUNDUP
NATIONAL WEATHER SERVICE BIRMINGHAM AL
700 PM CST SUN DEC 04 2016

NOTE: "FAIR" INDICATES FEW OR NO CLOUDS BELOW 12,000 FEET
WITH NO SIGNIFICANT WEATHER AND/OR OBSTRUCTIONS TO VISIBILITY.

THE REMARK "TC" DENOTES TEMPERATURE IN DEGREES CELSIUS.

ALZ001>011-014-016>018-020-050200-
NORTH ALABAMA

CITY           SKY/WX    TMP DP  RH WIND       PRES   REMARKS
MUSCLE SHOALS  CLOUDY    50  47  89 CALM      30.01F
HUNTSVILLE     CLOUDY    49  48  97 CALM      29.99R FOG
DECATUR        CLOUDY    48  48 100 CALM      30.00R FOG
HALEYVILLE     CLOUDY    49  49 100 CALM      30.00R FOG
GADSDEN        LGT RAIN  48  47  96 E6        30.01R FOG
$$

ALZ012-013-022-023-030>036-040>044-050200-
WEST CENTRAL ALABAMA

CITY           SKY/WX    TMP DP  RH WIND       PRES   REMARKS
TUSCALOOSA     CLOUDY    54  54 100 CALM      29.98R
$$

ALZ015-024>027-033>036-040>044-050200-
CENTRAL ALABAMA

CITY           SKY/WX    TMP DP  RH WIND       PRES   REMARKS
BIRMINGHAM     CLOUDY    51  51 100 N6        30.00R
MONTGOMERY     CLOUDY    57  53  86 NE6       29.99R
SHELBY CO ARPT LGT RAIN  53  53 100 VRB5      29.98S FOG
MAXWELL AFB    LGT RAIN  56  55  98 NE6       29.97R
GREENVILLE     CLOUDY    63  59  87 N3        29.94S FOG
$$

ALZ019-021-028-029-037-038-045>048-050200-
EAST CENTRAL ALABAMA

CITY           SKY/WX    TMP DP  RH WIND       PRES   REMARKS
ANNISTON       CLOUDY    48  47  96 NE9       30.01S
ALEXANDER CITY CLOUDY    52  51  96 CALM      30.00S FOG
AUBURN         LGT RAIN  50  49  96 NE9       30.00S
$$

ALZ051>064-050200-
SOUTHWEST ALABAMA

CITY           SKY/WX    TMP DP  RH WIND       PRES   REMARKS
MOBILE         RAIN      65  63  93 N12       29.98R
BROOKLEY FIELD CLOUDY    67  66  97 NW10      29.98R
EVERGREEN      LGT RAIN  66  64  93 CALM      29.96R
$$

ALZ049-050-065>069-050200-
SOUTHEAST ALABAMA

CITY           SKY/WX    TMP DP  RH WIND       PRES   REMARKS
DOTHAN         RAIN      65  65 100 SE8       29.99R FOG
OZARK          LGT RAIN  64  64 100 CALM      29.95R
TROY           CLOUDY    60  60 100 CALM      29.97R
EUFAULA        LGT RAIN  57  55  93 N3        29.95F
$$




USA.gov is the U.S. government's official web portal to all federal, state and local government web resources and services.